Location: Oberkirch
(48.5323°N, 8.0787°E)
Time: 12:09:19
(UTC+00:00)

A-11 Canister half - Visible Passes

Search period start: 16 February 2026 00:00
Search period end: 26 February 2026 00:00
Orbit: 1525 x 1682 km, 47.3° (Epoch: 16 February)

Date Brightness Start Highest point End Pass type
(mag) Time Alt. Az. Time Alt. Az. Time Alt. Az.
16 Feb 9.0 17:49:57 10° WSW 17:59:15 76° SSE 18:07:01 16° E visible
16 Feb 8.7 19:54:50 10° W 20:04:08 81° S 20:05:18 71° SE visible
16 Feb 10.3 21:59:46 10° WNW 22:03:36 27° W 22:03:36 27° W visible
17 Feb 9.1 17:28:08 10° WSW 17:37:26 75° SSE 17:46:25 11° E visible
17 Feb 8.8 19:33:00 10° W 19:42:19 82° S 19:44:42 56° ESE visible
17 Feb 10.0 21:37:56 10° WNW 21:43:00 34° W 21:43:00 34° W visible
18 Feb 8.9 19:11:09 10° W 19:20:29 82° S 19:24:07 43° ESE visible
18 Feb 9.7 21:16:06 10° WNW 21:22:23 42° WSW 21:22:23 42° WSW visible
19 Feb 8.9 18:49:19 10° W 18:58:39 83° S 19:03:32 33° ESE visible
19 Feb 9.4 20:54:15 10° WNW 21:01:49 51° WSW 21:01:49 51° WSW visible
20 Feb 8.9 18:27:29 10° W 18:36:50 83° S 18:42:58 25° E visible
20 Feb 9.1 20:32:25 10° WNW 20:41:15 56° SSW 20:41:15 56° SSW visible
20 Feb 10.9 22:38:15 10° W 22:39:33 13° W 22:39:33 13° W visible
21 Feb 9.0 18:05:38 10° W 18:15:00 84° S 18:22:25 18° E visible
21 Feb 9.1 20:10:35 10° WNW 20:19:37 58° SSW 20:20:43 55° S visible
21 Feb 10.7 22:16:18 10° W 22:19:00 17° W 22:19:00 17° W visible
22 Feb 9.0 17:43:48 10° W 17:53:10 84° S 18:01:55 12° E visible
22 Feb 9.1 19:48:46 10° WNW 19:57:50 60° SSW 20:00:12 48° SSE visible
22 Feb 10.5 21:54:22 10° W 21:58:30 21° WSW 21:58:30 21° WSW visible
23 Feb 9.1 17:21:56 10° W 17:31:20 84° S 17:40:40 10° E visible
23 Feb 9.1 19:26:55 10° WNW 19:36:02 62° SSW 19:39:43 39° SE visible
23 Feb 10.3 21:32:26 10° W 21:38:01 25° WSW 21:38:01 25° WSW visible
24 Feb 9.2 19:05:05 10° WNW 19:14:13 63° SSW 19:19:17 30° SE visible
24 Feb 10.1 21:10:32 10° W 21:17:35 27° SW 21:17:35 27° SW visible
25 Feb 9.2 18:43:14 10° WNW 18:52:25 65° SSW 18:58:53 22° SE visible
25 Feb 10.0 20:48:37 10° W 20:56:09 29° SW 20:57:11 28° SW visible
